Regional Weather Roundup
Issued by NWS Green Bay, WI

Home | Current Version | Previous Version | Text Only | Print | Product List | Glossary On
Versions: 1 2 3 4 5 6 7 8 9 10 11 12 13 14 15 16 17 18 19 20 21 22 23 24 25 26 27 28 29 30 31 32 33 34 35 36 37 38 39 40 41 42 43 44 45 46 47 48 49 50
000
ASUS43 KGRB 210559
RWRGRB

NORTH-CENTRAL AND NORTHEAST WISCONSIN REGIONAL WEATHER ROUNDUP
NATIONAL WEATHER SERVICE GREEN BAY WI
100 AM CDT TUE OCT 21 2014

WIZ005-009-010>012-018-019-210700-
NORTH CENTRAL WISCONSIN

CITY           SKY/WX    TMP DP  RH WIND       PRES   REMARKS
IRONWOOD       CLOUDY    41  36  81 NE5       30.10S
MANITOWISH WTR NOT AVBL
ARBOR VITAE    NOT AVBL
EAGLE RIVER    NOT AVBL
LAND O LAKES   NOT AVBL
RHINELANDER    CLOUDY    39  35  86 N8G18     30.09R
PHILLIPS       NOT AVBL
ANTIGO         NOT AVBL
TOMAHAWK       NOT AVBL
MERRILL        NOT AVBL
$$

WIZ013-073-210700-
NORTHEAST WISCONSIN

CITY           SKY/WX    TMP DP  RH WIND       PRES   REMARKS
IRON MOUNTAIN  CLOUDY    41  38  89 N8        30.06R
MARINETTE      CLOUDY    45  36  70 N8        30.04R
$$

WIZ017-030-035>037-045-210700-
CENTRAL WISCONSIN

CITY           SKY/WX    TMP DP  RH WIND       PRES   REMARKS
MEDFORD        NOT AVBL
WAUSAU         CLOUDY    44  37  76 N7        30.07R
MOSINEE        NOT AVBL
MARSHFIELD     CLOUDY    48  39  71 N8        30.07R
WISC RAPIDS    CLOUDY    48  40  73 NE10      30.09R
STEVENS POINT  NOT AVBL
WAUPACA        NOT AVBL
SHAWANO        NOT AVBL
CLINTONVILLE   NOT AVBL
$$

WIZ038-039-048-051-210700-
FOX VALLEY

CITY           SKY/WX    TMP DP  RH WIND       PRES   REMARKS
NWS GREEN BAY  CLOUDY    45  39  79 N12       30.05R
APPLETON       NOT AVBL
OSHKOSH        CLOUDY    47  39  74 N13       30.04R
FOND DU LAC    CLOUDY    48  39  71 N12       30.04R
$$

WIZ022-050-052-210700-
EAST CENTRAL WISCONSIN

CITY           SKY/WX    TMP DP  RH WIND       PRES   REMARKS
STURGEON BAY   CLOUDY    45  37  76 N17       30.03S
MANITOWOC      NOT AVBL
SHEBOYGAN      CLOUDY    45  40  82 N6        30.03R
$$

LMZ563-521-522-541>543-210700-
LAKESHORE

STATION/POSITION TIME  TEMP    WIND        PRES    VSBY  WAVE
                       AIR SEA DIR/SP/G                  HT/PER
                 (UTC) (F)     (DEG/KT/KT) (MB)    (MI)  (FT/S)
SHEBOYGAN LKSHOR 0500   49 50  340/ 11/ 14 1016.8S
KEWAUNEE LKSHORE 0500   46     350/  7/ 12 1015.8R
NORTHPORT PIER   0500   47     340/ 20/ 27 1016.3S
N MID LAKE BUOY  0500   47 51  350/ 19/ 23 1015.5R         4/ 5
CHAMBERS ISLAND  0500   46     330/ 18/ 23 1016.9F
MENOMINEE LKSHOR 0500   46     340/ 13/ 17 1017.8R
$$



USA.gov is the U.S. government's official web portal to all federal, state and local government web resources and services.